Location: CCZU
(31.6840°N, 119.9550°E)
Time: 09:16:08
(UTC+08:00)

ISS - Visible Passes

Search period start: 25 September 2022 00:00
Search period end: 05 October 2022 00:00
Orbit: 414 x 417 km, 51.6° (Epoch: 24 September)

Date Brightness Start Highest point End Pass type
(mag) Time Alt. Az. Time Alt. Az. Time Alt. Az.
02 Oct -1.2 19:37:06 10° NNW 19:37:58 16° NNW 19:37:58 16° NNW visible
03 Oct -2.0 18:48:49 10° NNW 18:51:16 19° NE 18:51:23 19° NE visible
04 Oct -1.9 19:36:00 10° NW 19:37:48 29° NW 19:37:48 29° NW visible
